This demonstration page uses our WeatherBlox Daily Observations layout. Learn more.

Left ArrowRight Arrow

Hourly Observations for August 11, 2015

Temp ( °F °C ) Dew Point ( °F °C ) Humidity (%) Winds ( mph kmh ) Pressure ( in mb ) Visibility ( mi km ) Precip ( " mm )
12:54 am 00:54 Clear 65 18.3 61 16.1 87 87 N 6 9 30.13 1020 10 16.0934 0 0
1:54 am 01:54 Clear 63 17.2 61 16.1 93 93 N 5 7 30.15 1021 10 16.0934 0 0
2:54 am 02:54 Clear 63 17.2 61 16.1 93 93 NNW 6 9 30.15 1021 10 16.0934 0 0
3:54 am 03:54 Clear 62 16.7 60 15.6 93 93 N 5 7 30.15 1021 10 16.0934 0 0
4:54 am 04:54 Clear 60 15.6 58 14.4 93 93 Calm 30.16 1021 10 16.0934 0 0
5:54 am 05:54 Clear 60 15.6 58 14.4 93 93 Calm 30.17 1022 10 16.0934 0 0
6:54 am 06:54 Sunny 60 15.6 58 14.4 93 93 Calm 30.19 1022 10 16.0934 0 0
7:54 am 07:54 Sunny 65 18.3 61 16.1 87 87 Calm 30.21 1023 10 16.0934 0 0
8:54 am 08:54 Sunny 71 21.7 62 16.7 73 73 Calm 30.22 1023 10 16.0934 0 0
9:54 am 09:54 Sunny 76 24.4 63 17.2 64 64 Calm 30.23 1024 10 16.0934 0 0
10:54 am 10:54 Sunny 79 26.1 60 15.6 52 52 Calm 30.23 1024 10 16.0934 0 0
11:54 am 11:54 Sunny 82 27.8 61 16.1 49 49 Calm 30.22 1023 10 16.0934 0 0
12:54 pm 12:54 Mostly Sunny 83 28.3 60 15.6 46 46 ENE 6 9 30.2 1023 10 16.0934 0 0
1:54 pm 13:54 Mostly Sunny 85 29.4 61 16.1 45 45 NE 10 17 30.19 1022 10 16.0934 0 0
2:54 pm 14:54 Mostly Sunny 85 29.4 60 15.6 43 43 ESE 6 9 30.18 1022 10 16.0934 0 0
3:54 pm 15:54 Sunny 87 30.6 60 15.6 40 40 VRB 7 11 30.17 1022 10 16.0934 0 0
4:54 pm 16:54 Sunny 86 30 61 16.1 43 43 undefined N/A 30.16 1021 10 16.0934 0 0
5:54 pm 17:54 Sunny 85 29.4 60 15.6 43 43 NE 6 9 30.16 1021 10 16.0934 0 0
6:54 pm 18:54 Sunny 84 28.9 61 16.1 46 46 NNE 7 11 30.15 1021 10 16.0934 0 0
7:54 pm 19:54 Sunny 80 26.7 62 16.7 54 54 NE 6 9 30.15 1021 10 16.0934 0 0
8:54 pm 20:54 Clear 78 25.6 60 15.6 54 54 E 3 6 30.15 1021 10 16.0934 0 0
9:54 pm 21:54 Clear 75 23.9 62 16.7 64 64 Calm 30.17 1022 10 16.0934 0 0
10:54 pm 22:54 Clear 72 22.2 63 17.2 73 73 Calm 30.19 1022 10 16.0934 0 0
11:54 pm 23:54 Clear 67 19.4 62 16.7 84 84 Calm 30.18 1022 10 16.0934 0 0

Powered by AerisWeather